カタログに戻る

STARLINK-11368

運用中通信VLEO
NORAD 61583·PAYLOAD·🇺🇸 United States

打ち上げ Oct 18, 2024 から Cape Canaveral Space Force Station

Loading…

次のパス (今後24時間)

TLE

最新Source: CelesTrak SupGP

元期: Sep 14, 2026, 22:18 UTC

1 61583C 24187K   26257.92965278  .00033595  00000+0  27672-3 0  2573
2 61583  53.1568  83.6161 0001151  76.6205 124.4654 15.69693857    18

AllMySatでSTARLINK-11368をリアルタイム追跡

Download on the App Store